• în Republica Moldova
  • Lista ţărilor
  • Pe 7 zile
  • Temperatura apei
  • Hartă satelitară
  • Meteo pe hartă
  • Widget-uri
  • user-avatar
    Intrare

    Meteo pe oră la Batina

    Astăzi, 21 Ianuarie, Luni

    Timp Temperatura Precipitaţii Vânt Presiune Umiditate
    00:00 +4°C° 0 mm 3 m/s 664 mmHg 89%
    01:00 +4°C° 0 mm 3 m/s 664 mmHg 89%
    02:00 +4°C° 0 mm 3 m/s 663 mmHg 90%
    03:00 +4°C° 0 mm 3 m/s 663 mmHg 90%
    04:00 +3°C° 0 mm 3 m/s 663 mmHg 91%
    05:00 +3°C° 0 mm 3 m/s 663 mmHg 92%
    06:00 +3°C° 0 mm 3 m/s 663 mmHg 93%
    07:00 +4°C° 0.1 mm 3 m/s 664 mmHg 86%
    08:00 +5°C° 0.1 mm 3 m/s 664 mmHg 79%
    09:00 +6°C° 0.1 mm 4 m/s 665 mmHg 72%
    10:00 +6°C° 0 mm 5 m/s 665 mmHg 68%
    11:00 +7°C° 0 mm 6 m/s 665 mmHg 63%
    12:00 +6°C° 0 mm 7 m/s 665 mmHg 59%
    13:00 +6°C° 0.1 mm 7 m/s 665 mmHg 60%
    14:00 +5°C° 0.1 mm 7 m/s 665 mmHg 62%
    15:00 +5°C° 0.1 mm 6 m/s 666 mmHg 63%
    16:00 +5°C° 0 mm 5 m/s 666 mmHg 68%
    17:00 +4°C° 0 mm 4 m/s 666 mmHg 73%
    18:00 +4°C° 0 mm 2 m/s 666 mmHg 78%
    19:00 +4°C° 0 mm 2 m/s 666 mmHg 82%
    20:00 +3°C° 0 mm 2 m/s 666 mmHg 85%
    21:00 +4°C° 0 mm 1 m/s 666 mmHg 88%
    22:00 +3°C° 0 mm 1 m/s 666 mmHg 89%
    23:00 +3°C° 0 mm 1 m/s 666 mmHg 90%

    Mâine, 22 Ianuarie, Marţi

    Timp Temperatura Precipitaţii Vânt Presiune Umiditate
    00:00 +2°C° 0 mm 1 m/s 666 mmHg 91%
    01:00 +2°C° 0 mm 1 m/s 666 mmHg 91%
    02:00 +2°C° 0 mm 1 m/s 666 mmHg 92%
    03:00 +2°C° 0 mm 1 m/s 666 mmHg 92%
    04:00 +1°C° 0 mm 1 m/s 666 mmHg 92%
    05:00 +1°C° 0 mm 1 m/s 666 mmHg 93%
    06:00 +1°C° 0 mm 1 m/s 666 mmHg 93%
    07:00 +2°C° 0 mm 1 m/s 666 mmHg 85%
    08:00 +3°C° 0 mm 1 m/s 666 mmHg 77%
    09:00 +4°C° 0 mm 1 m/s 667 mmHg 70%
    10:00 +5°C° 0.1 mm 1 m/s 667 mmHg 64%
    11:00 +6°C° 0.1 mm 1 m/s 667 mmHg 59%
    12:00 +7°C° 0.1 mm 1 m/s 666 mmHg 54%
    13:00 +6°C° 0.3 mm 2 m/s 666 mmHg 53%
    14:00 +5°C° 0.3 mm 3 m/s 665 mmHg 53%
    15:00 +5°C° 0.3 mm 3 m/s 665 mmHg 53%
    16:00 +4°C° 0.1 mm 3 m/s 664 mmHg 57%
    17:00 +4°C° 0.1 mm 3 m/s 664 mmHg 61%
    18:00 +4°C° 0.1 mm 2 m/s 664 mmHg 66%
    19:00 +3°C° 0 mm 2 m/s 664 mmHg 69%
    20:00 +3°C° 0 mm 2 m/s 664 mmHg 72%
    21:00 +3°C° 0 mm 1 m/s 663 mmHg 75%
    22:00 +3°C° 0 mm 1 m/s 663 mmHg 76%
    23:00 +1°C° 0 mm 2 m/s 662 mmHg 78%

    Poimâine, 23 Ianuarie, Miercuri

    Timp Temperatura Precipitaţii Vânt Presiune Umiditate
    00:00 +1°C° 0 mm 2 m/s 662 mmHg 79%
    01:00 +1°C° 0 mm 2 m/s 661 mmHg 78%
    02:00 +1°C° 0 mm 2 m/s 661 mmHg 77%
    03:00 +1°C° 0 mm 2 m/s 660 mmHg 77%
    04:00 +1°C° 0 mm 2 m/s 660 mmHg 76%
    05:00 +1°C° 0 mm 2 m/s 660 mmHg 76%
    06:00 0°C° 0 mm 3 m/s 659 mmHg 76%
    07:00 0°C° 0.3 mm 3 m/s 660 mmHg 77%
    08:00 0°C° 0.3 mm 4 m/s 660 mmHg 78%
    09:00 +1°C° 0.3 mm 5 m/s 660 mmHg 78%
    10:00 +2°C° 0 mm 6 m/s 660 mmHg 72%
    11:00 +3°C° 0 mm 7 m/s 660 mmHg 65%
    12:00 +4°C° 0 mm 8 m/s 659 mmHg 58%
    13:00 +2°C° 0.1 mm 9 m/s 659 mmHg 60%
    14:00 +2°C° 0.1 mm 9 m/s 659 mmHg 61%
    15:00 +2°C° 0.1 mm 10 m/s 658 mmHg 62%
    16:00 +1°C° 0.3 mm 9 m/s 658 mmHg 68%
    17:00 +1°C° 0.3 mm 8 m/s 657 mmHg 73%
    18:00 +2°C° 0.3 mm 7 m/s 656 mmHg 79%
    19:00 +2°C° 0.8 mm 6 m/s 656 mmHg 82%
    20:00 +2°C° 0.8 mm 6 m/s 656 mmHg 85%
    21:00 +2°C° 0.8 mm 6 m/s 656 mmHg 89%
    22:00 +2°C° 1 mm 6 m/s 655 mmHg 88%
    23:00 0°C° 1 mm 7 m/s 655 mmHg 88%

    24 Ianuarie, Joi

    Timp Temperatura Precipitaţii Vânt Presiune Umiditate
    00:00 0°C° 1 mm 8 m/s 655 mmHg 88%
    01:00 -1°C° 0.4 mm 8 m/s 654 mmHg 87%
    02:00 -1°C° 0.4 mm 9 m/s 654 mmHg 87%
    03:00 -3°C° 0.4 mm 9 m/s 653 mmHg 87%
    04:00 -4°C° 0.6 mm 10 m/s 653 mmHg 87%
    05:00 -6°C° 0.6 mm 11 m/s 653 mmHg 87%
    06:00 -7°C° 0.6 mm 12 m/s 653 mmHg 87%
    07:00 -6°C° 0 mm 13 m/s 653 mmHg 84%
    08:00 -7°C° 0 mm 15 m/s 654 mmHg 80%
    09:00 -7°C° 0 mm 16 m/s 654 mmHg 77%
    10:00 -7°C° 0 mm 16 m/s 654 mmHg 76%
    11:00 -5°C° 0 mm 16 m/s 654 mmHg 74%
    12:00 -4°C° 0 mm 16 m/s 654 mmHg 73%
    13:00 -4°C° 0 mm 15 m/s 654 mmHg 75%
    14:00 -4°C° 0 mm 15 m/s 655 mmHg 77%
    15:00 -5°C° 0 mm 14 m/s 655 mmHg 79%
    16:00 -5°C° 0.1 mm 13 m/s 655 mmHg 82%
    17:00 -5°C° 0.1 mm 12 m/s 656 mmHg 84%
    18:00 -4°C° 0.1 mm 11 m/s 656 mmHg 87%
    19:00 -4°C° 0 mm 10 m/s 657 mmHg 88%
    20:00 -4°C° 0 mm 9 m/s 657 mmHg 89%
    21:00 -4°C° 0 mm 8 m/s 658 mmHg 89%
    22:00 -3°C° 1 mm 10 m/s 659 mmHg 91%
    23:00 -3°C° 1 mm 11 m/s 659 mmHg 93%

    25 Ianuarie, Vineri

    Timp Temperatura Precipitaţii Vânt Presiune Umiditate
    00:00 -2°C° 1 mm 12 m/s 660 mmHg 95%
    01:00 -3°C° 0.2 mm 12 m/s 660 mmHg 95%
    02:00 -3°C° 0.2 mm 12 m/s 661 mmHg 95%
    03:00 -3°C° 0.2 mm 12 m/s 661 mmHg 95%
    04:00 -3°C° 0.1 mm 12 m/s 661 mmHg 95%
    05:00 -4°C° 0.1 mm 11 m/s 662 mmHg 94%
    06:00 -4°C° 0.1 mm 11 m/s 663 mmHg 94%
    07:00 -4°C° 0 mm 10 m/s 663 mmHg 92%
    08:00 -4°C° 0 mm 9 m/s 664 mmHg 90%
    09:00 -4°C° 0 mm 8 m/s 664 mmHg 88%
    10:00 -2°C° 0.1 mm 8 m/s 665 mmHg 86%
    11:00 -3°C° 0.1 mm 9 m/s 665 mmHg 85%
    12:00 -3°C° 0.1 mm 9 m/s 665 mmHg 84%
    13:00 -3°C° 0.1 mm 10 m/s 665 mmHg 84%
    14:00 -3°C° 0.1 mm 10 m/s 665 mmHg 84%
    15:00 -3°C° 0.1 mm 11 m/s 665 mmHg 84%
    16:00 -3°C° 0.2 mm 9 m/s 666 mmHg 86%
    17:00 -4°C° 0.2 mm 8 m/s 666 mmHg 89%
    18:00 -3°C° 0.2 mm 7 m/s 667 mmHg 91%
    19:00 -3°C° 0.1 mm 6 m/s 667 mmHg 92%
    20:00 -2°C° 0.1 mm 5 m/s 667 mmHg 93%
    21:00 -3°C° 0.1 mm 4 m/s 668 mmHg 94%
    22:00 -3°C° 0.1 mm 4 m/s 668 mmHg 94%
    23:00 -2°C° 0.1 mm 4 m/s 668 mmHg 93%

    26 Ianuarie, Sâmbătă

    Timp Temperatura Precipitaţii Vânt Presiune Umiditate
    00:00 -1°C° 0.1 mm 3 m/s 668 mmHg 92%
    01:00 -2°C° 0 mm 3 m/s 668 mmHg 92%
    02:00 -3°C° 0 mm 2 m/s 668 mmHg 92%
    03:00 -3°C° 0 mm 2 m/s 667 mmHg 92%
    04:00 -3°C° 0 mm 2 m/s 667 mmHg 91%
    05:00 -3°C° 0 mm 2 m/s 668 mmHg 90%
    06:00 -3°C° 0 mm 2 m/s 668 mmHg 88%
    07:00 -2°C° 0 mm 2 m/s 669 mmHg 85%
    08:00 -1°C° 0 mm 2 m/s 669 mmHg 82%
    09:00 +1°C° 0 mm 2 m/s 670 mmHg 78%
    10:00 +2°C° 0 mm 2 m/s 670 mmHg 79%
    11:00 +2°C° 0 mm 2 m/s 670 mmHg 80%
    12:00 +3°C° 0 mm 2 m/s 670 mmHg 80%
    13:00 +3°C° 0 mm 2 m/s 670 mmHg 79%
    14:00 +4°C° 0 mm 2 m/s 669 mmHg 77%
    15:00 +4°C° 0 mm 2 m/s 669 mmHg 76%
    16:00 +3°C° 0 mm 2 m/s 669 mmHg 78%
    17:00 +1°C° 0 mm 2 m/s 669 mmHg 79%
    18:00 +1°C° 0 mm 1 m/s 669 mmHg 81%
    19:00 +1°C° 0 mm 1 m/s 669 mmHg 80%
    20:00 +1°C° 0 mm 1 m/s 669 mmHg 78%
    21:00 +1°C° 0 mm 1 m/s 669 mmHg 77%
    22:00 -1°C° 0 mm 2 m/s 669 mmHg 74%
    23:00 -1°C° 0 mm 2 m/s 668 mmHg 72%
    Arată mai mult